Location: Los Gatos B&B
(42.6926°N, 77.0646°W)
Time: 09:10:18
(UTC-04:00)

SL-16 R/B - Visible Passes

Search period start: 26 July 2014 00:00
Search period end: 05 August 2014 00:00
Orbit: 841 x 849 km, 71.0° (Epoch: 25 July)

Date Brightness Start Highest point End Pass type
(mag) Time Alt. Az. Time Alt. Az. Time Alt. Az.
26 Jul 2.1 00:24:15 10° NNW 00:29:57 77° ENE 00:30:18 74° ESE visible
26 Jul 4.2 02:10:14 10° WNW 02:12:10 14° W 02:12:10 14° W visible
26 Jul 4.4 22:27:56 10° NNE 22:30:51 14° NE 22:33:45 10° ENE visible
27 Jul 2.1 00:10:17 10° NNW 00:16:00 75° ENE 00:16:27 70° ESE visible
27 Jul 4.2 01:56:10 10° WNW 01:58:19 15° W 01:58:19 15° W visible
27 Jul 4.4 22:14:03 10° NNE 22:16:51 14° NE 22:19:38 10° ENE visible
27 Jul 2.1 23:56:20 10° NNW 00:02:02 73° ENE 00:02:38 66° ESE visible
28 Jul 4.2 01:42:07 10° WNW 01:44:30 16° W 01:44:30 16° W visible
28 Jul 4.4 22:00:11 10° NNE 22:02:52 13° NE 22:05:32 10° ENE visible
28 Jul 2.2 23:42:23 10° NNW 23:48:05 70° ENE 23:48:50 62° ESE visible
29 Jul 4.2 01:28:04 10° WNW 01:30:43 16° W 01:30:43 16° W visible
29 Jul 4.4 21:46:20 10° NNE 21:48:52 13° NE 21:51:25 10° ENE visible
29 Jul 2.2 23:28:27 10° NNW 23:34:08 68° ENE 23:35:05 57° ESE visible
30 Jul 4.1 01:14:01 10° WNW 01:16:57 17° W 01:16:57 17° W visible
30 Jul 4.4 21:32:29 10° NNE 21:34:53 13° NE 21:37:17 10° ENE visible
30 Jul 2.3 23:14:30 10° NNW 23:20:10 66° ENE 23:21:21 52° ESE visible
31 Jul 4.1 00:59:59 10° WNW 01:03:14 18° W 01:03:14 18° W visible
31 Jul 4.3 21:18:38 10° NNE 21:20:54 12° NE 21:23:09 10° ENE visible
31 Jul 2.3 23:00:33 10° NNW 23:06:13 64° ENE 23:07:40 47° ESE visible
01 Aug 4.0 00:45:57 10° WNW 00:49:32 19° W 00:49:32 19° W visible
01 Aug 4.3 21:04:48 10° NNE 21:06:54 12° NE 21:09:00 10° ENE visible
01 Aug 2.3 22:46:36 10° NNW 22:52:15 62° ENE 22:54:00 42° ESE visible
02 Aug 4.0 00:31:55 10° NW 00:35:49 19° W 00:35:53 19° W visible
02 Aug 2.4 22:32:40 10° NNW 22:38:18 60° ENE 22:40:23 38° SE visible
03 Aug 3.9 00:17:54 10° NW 00:21:54 20° W 00:22:16 20° WSW visible
03 Aug 2.4 22:18:43 10° NNW 22:24:21 58° ENE 22:26:47 33° SE visible
04 Aug 3.9 00:03:53 10° NW 00:07:58 21° W 00:08:41 20° WSW visible
04 Aug 2.4 22:04:46 10° NNW 22:10:23 57° ENE 22:13:14 28° SE visible
04 Aug 3.9 23:49:52 10° NW 23:54:02 21° W 23:55:08 20° WSW visible
